TimeCDT,TemperatureF,Dew PointF,Humidity,Sea Level PressureIn,VisibilityMPH,Wind Direction,Wind SpeedMPH,Gust SpeedMPH,PrecipitationIn,Events,Conditions,WindDirDegrees,DateUTC
12:14 AM,28.4,22.6,79,30.08,10.0,North,3.5,-,N/A,,Scattered Clouds,350,2012-11-02 05:14:00
12:34 AM,28.8,22.8,78,30.08,10.0,North,3.5,-,N/A,,Mostly Cloudy,350,2012-11-02 05:34:00
12:55 AM,27.0,22.1,82,30.08,10.0,North,3.5,-,N/A,,Overcast,350,2012-11-02 05:55:00
1:14 AM,28.2,22.5,79,30.08,10.0,North,5.8,-,N/A,,Mostly Cloudy,360,2012-11-02 06:14:00
1:34 AM,28.9,23.9,81,30.08,10.0,NNE,5.8,-,N/A,,Mostly Cloudy,20,2012-11-02 06:34:00
1:55 AM,28.9,23.7,81,30.09,10.0,North,4.6,-,N/A,,Scattered Clouds,360,2012-11-02 06:55:00
2:14 AM,28.0,23.4,83,30.09,10.0,North,4.6,-,N/A,,Clear,360,2012-11-02 07:14:00
2:34 AM,26.8,22.8,85,30.09,10.0,Calm,Calm,-,N/A,,Clear,0,2012-11-02 07:34:00
2:55 AM,25.7,22.3,87,30.09,10.0,Calm,Calm,-,N/A,,Clear,0,2012-11-02 07:55:00
3:14 AM,24.6,21.7,89,30.10,10.0,West,3.5,-,N/A,,Clear,270,2012-11-02 08:14:00
3:34 AM,24.4,21.6,89,30.09,10.0,Calm,Calm,-,N/A,,Clear,0,2012-11-02 08:34:00
3:54 AM,25.5,22.6,89,30.09,10.0,Calm,Calm,-,N/A,,Clear,0,2012-11-02 08:54:00
4:15 AM,24.8,21.6,87,30.09,10.0,Calm,Calm,-,N/A,,Clear,0,2012-11-02 09:15:00
4:34 AM,23.0,20.3,89,30.10,10.0,Calm,Calm,-,N/A,,Clear,0,2012-11-02 09:34:00
4:54 AM,24.4,21.6,89,30.09,10.0,Calm,Calm,-,N/A,,Clear,0,2012-11-02 09:54:00
5:15 AM,23.5,21.0,90,30.10,10.0,WNW,4.6,-,N/A,,Clear,290,2012-11-02 10:15:00
5:34 AM,21.9,19.6,91,30.11,10.0,Calm,Calm,-,N/A,,Clear,0,2012-11-02 10:34:00
5:54 AM,21.2,19.2,92,30.11,10.0,Calm,Calm,-,N/A,,Clear,0,2012-11-02 10:54:00
6:15 AM,20.3,18.1,91,30.12,10.0,Calm,Calm,-,N/A,,Clear,0,2012-11-02 11:15:00
6:34 AM,22.1,20.5,93,30.11,10.0,NNE,3.5,-,N/A,,Clear,20,2012-11-02 11:34:00
6:54 AM,23.0,21.2,93,30.11,10.0,North,3.5,-,N/A,,Clear,10,2012-11-02 11:54:00
7:15 AM,22.6,20.5,91,30.12,10.0,North,3.5,-,N/A,,Clear,360,2012-11-02 12:15:00
7:34 AM,22.8,20.8,92,30.13,10.0,North,3.5,-,N/A,,Clear,360,2012-11-02 12:34:00
7:54 AM,22.5,20.5,92,30.13,10.0,NNE,3.5,-,N/A,,Clear,20,2012-11-02 12:54:00
8:15 AM,23.0,20.8,91,30.13,10.0,North,4.6,-,N/A,,Clear,10,2012-11-02 13:15:00
8:34 AM,23.7,21.6,91,30.14,10.0,NNE,3.5,-,N/A,,Clear,20,2012-11-02 13:34:00
8:54 AM,25.7,23.2,90,30.15,10.0,Calm,Calm,-,N/A,,Clear,0,2012-11-02 13:54:00
9:15 AM,27.5,24.3,88,30.15,10.0,NNE,4.6,-,N/A,,Clear,20,2012-11-02 14:15:00
9:34 AM,28.2,24.3,85,30.15,10.0,North,5.8,-,N/A,,Clear,10,2012-11-02 14:34:00
9:54 AM,29.3,24.3,81,30.16,10.0,NE,4.6,-,N/A,,Clear,40,2012-11-02 14:54:00
10:14 AM,30.7,24.6,78,30.16,10.0,NE,5.8,-,N/A,,Clear,40,2012-11-02 15:14:00
10:34 AM,32.0,24.8,75,30.16,10.0,NNE,3.5,-,N/A,,Clear,20,2012-11-02 15:34:00
10:54 AM,32.2,24.6,74,30.16,10.0,ENE,4.6,-,N/A,,Clear,60,2012-11-02 15:54:00
11:14 AM,32.9,24.6,72,30.17,10.0,ENE,4.6,-,N/A,,Clear,70,2012-11-02 16:14:00
11:34 AM,33.3,24.6,71,30.16,10.0,ENE,3.5,-,N/A,,Clear,60,2012-11-02 16:34:00
11:54 AM,34.2,24.4,68,30.16,10.0,ENE,3.5,-,N/A,,Clear,70,2012-11-02 16:54:00
12:14 PM,34.5,24.3,66,30.16,10.0,ENE,3.5,-,N/A,,Clear,70,2012-11-02 17:14:00
12:34 PM,34.9,24.1,65,30.15,10.0,Calm,Calm,-,N/A,,Clear,0,2012-11-02 17:34:00
12:54 PM,35.1,23.7,63,30.15,10.0,Calm,Calm,-,N/A,,Clear,0,2012-11-02 17:54:00
1:14 PM,35.6,24.3,63,30.14,10.0,Calm,Calm,-,N/A,,Clear,0,2012-11-02 18:14:00
1:34 PM,36.1,24.3,62,30.14,10.0,Calm,Calm,-,N/A,,Clear,0,2012-11-02 18:34:00
1:54 PM,37.4,24.3,59,30.14,10.0,Calm,Calm,-,N/A,,Clear,0,2012-11-02 18:54:00
2:34 PM,39.6,23.9,54,30.13,10.0,Calm,Calm,-,N/A,,Clear,0,2012-11-02 19:34:00
2:54 PM,39.6,23.5,53,30.13,10.0,SW,3.5,-,N/A,,Clear,220,2012-11-02 19:54:00
3:14 PM,40.1,22.8,50,30.12,10.0,Calm,Calm,-,N/A,,Clear,0,2012-11-02 20:14:00
3:34 PM,40.1,22.8,50,30.12,10.0,Calm,Calm,-,N/A,,Clear,0,2012-11-02 20:34:00
3:54 PM,39.7,22.6,50,30.12,10.0,North,3.5,-,N/A,,Clear,10,2012-11-02 20:54:00
4:14 PM,38.7,22.1,51,30.12,10.0,Calm,Calm,-,N/A,,Clear,0,2012-11-02 21:14:00
4:34 PM,38.8,21.7,50,30.13,10.0,Calm,Calm,-,N/A,,Clear,0,2012-11-02 21:34:00
4:54 PM,39.2,21.6,49,30.13,10.0,North,3.5,-,N/A,,Clear,360,2012-11-02 21:54:00
5:14 PM,38.8,22.1,51,30.12,10.0,Calm,Calm,-,N/A,,Scattered Clouds,0,2012-11-02 22:14:00
5:34 PM,38.7,22.1,51,30.13,10.0,Calm,Calm,-,N/A,,Clear,0,2012-11-02 22:34:00
5:55 PM,38.3,22.3,53,30.13,10.0,Calm,Calm,-,N/A,,Clear,0,2012-11-02 22:55:00
6:14 PM,37.4,23.4,57,30.13,10.0,Calm,Calm,-,N/A,,Clear,0,2012-11-02 23:14:00
6:34 PM,37.0,23.0,57,30.13,10.0,Calm,Calm,-,N/A,,Mostly Cloudy,0,2012-11-02 23:34:00
6:55 PM,36.7,23.2,58,30.13,10.0,Calm,Calm,-,N/A,,Mostly Cloudy,0,2012-11-02 23:55:00
7:14 PM,36.5,23.5,59,30.14,10.0,Calm,Calm,-,N/A,,Mostly Cloudy,0,2012-11-03 00:14:00
7:34 PM,36.1,23.9,61,30.14,10.0,Calm,Calm,-,N/A,,Mostly Cloudy,0,2012-11-03 00:34:00
7:55 PM,36.0,23.9,62,30.14,10.0,Calm,Calm,-,N/A,,Overcast,0,2012-11-03 00:55:00
8:14 PM,35.2,24.8,66,30.14,10.0,Calm,Calm,-,N/A,,Overcast,0,2012-11-03 01:14:00
8:35 PM,35.6,24.3,63,30.14,10.0,Calm,Calm,-,N/A,,Overcast,0,2012-11-03 01:35:00
8:54 PM,35.8,24.4,63,30.15,10.0,Calm,Calm,-,N/A,,Overcast,0,2012-11-03 01:54:00
9:14 PM,36.5,23.7,60,30.15,10.0,NNE,6.9,-,N/A,,Overcast,30,2012-11-03 02:14:00
9:34 PM,36.5,23.7,60,30.15,10.0,NE,5.8,-,N/A,,Overcast,50,2012-11-03 02:34:00
9:54 PM,36.0,23.9,62,30.17,10.0,Calm,Calm,-,N/A,,Overcast,0,2012-11-03 02:54:00
10:14 PM,35.6,24.1,63,30.17,10.0,NE,6.9,-,N/A,,Overcast,50,2012-11-03 03:14:00
10:34 PM,35.6,24.3,63,30.17,10.0,NE,4.6,-,N/A,,Overcast,40,2012-11-03 03:34:00
10:55 PM,35.2,24.3,64,30.17,10.0,NE,4.6,-,N/A,,Overcast,40,2012-11-03 03:55:00
11:14 PM,34.7,24.4,66,30.18,10.0,Calm,Calm,-,N/A,,Overcast,0,2012-11-03 04:14:00
11:34 PM,34.7,24.6,67,30.18,10.0,Calm,Calm,-,N/A,,Overcast,0,2012-11-03 04:34:00
11:54 PM,34.7,24.8,67,30.18,10.0,NE,4.6,-,N/A,,Overcast,40,2012-11-03 04:54:00